User: anonymous   Login
Location: Poprad
(49.0500°N, 20.3000°E)
Time: 02:30:18
(UTC+02:00)
Language:

NOAA 18 - Orbit

View from above orbital plane
View from above orbital plane
View from above satellite
View from above satellite

Ground track
Ground track

The orbit data is extracted from the following two-line orbital elements,

1 28654U 05018A   24114.83330093  .00000584  00000-0  33580-3 0  9999
2 28654  98.8750 192.2483 0013805 213.3427 146.6876 14.13178552975581
Epoch (UTC): 23 April 2024 19:59:57
Eccentricity: 0.0013805
inclination: 98.8750°
perigee height: 838 km
apogee height: 858 km
right ascension of ascending node: 192.2483°
argument of perigee: 213.3427°
revolutions per day: 14.13178552
mean anomaly at epoch: 146.6876°
orbit number at epoch: 97558

The dashed part of the orbit path shows where the satellite is in the earth's shadow,  

DLR